sat.trackr.live / text

‹ back to catalog

STARLINK-2187

NORAD 48562 · 2021-041K

PAYLOAD ACTIVE UNKNOWN

§ Identity

Operator
Country
US
Launch date
2021-05-15
Launch site
AFETR
Launch vehicle
Mass (kg)
RCS (m²)

Purposes: comms

External: N2YO · Heavens-Above · Gunter

§ Orbital elements

Epoch: 2026-09-20T00:00:02.999808Z

Period
90.69 min
Inclination
53.1459°
Eccentricity
0.0007266
Mean motion
15.87784776 rev/d
Perigee alt
303.6 km
Apogee alt
313.4 km
Semi-major
6,686.6 km
B*
5.7117e-4
RAAN
265.3362°
Arg perigee
33.7775°
Mean anomaly
142.3117°
Rev number
603

§ Raw data

STARLINK-21871 48562U 21041K   26263.00003472  .00159206  00000+0  57117-3 0  99942 48562  53.1459 265.3362 0007266  33.7775 142.3117 15.87784776  6032

JSON: /api/v1/satellites/48562 · /tle

For live sub-satellite position, see the globe view (requires WebGL).

§ Visibility from observer

Set your observer location to see the next 7 days of passes ≥ 10°. The values pass through the URL so the page stays shareable.

No JS? Fill the form by hand. The geolocation button needs JavaScript.